{"data":{"norad_id":68037,"epoch":"2026-05-24T19:38:10.310496Z","epoch_age_seconds":84568,"freshness":"FRESH","line1":"1 68037U 26040Y   26144.81817489  .00014308  00000+0  44461-3 0  9996","line2":"2 68037  97.2850  93.8943 0001777 100.8463 259.2980 15.33450088 13137","mean_motion":15.33450088,"eccentricity":0.0001777,"inclination_deg":97.285,"raan_deg":93.8943,"arg_perigee_deg":100.8463,"mean_anomaly_deg":259.298,"bstar":0.00044461,"rev_number":1313,"period_min":93.905893075276,"perigee_km":464.31191693477,"apogee_km":466.74415548864,"semimajor_km":6843.6650362117,"source":"CELESTRAK","updated_at":"2026-05-25T13:38:21.809099Z"}}